Weather History for KDUJ - November, 2013

Change the Weather History Date:

Friday, November 1, 2013

  Actual Average Record
Temperature  
Mean Temperature 55 °F 44 °F  
Max Temperature 60 °F 53 °F 71 °F (1974)
Min Temperature 49 °F 36 °F 1 °F (2011)
Degree Days  
Heating Degree Days 10 21  
Month to date heating degree days 10 21  
Since 1 July heating degree days 570 764  
Cooling Degree Days 0 0  
Month to date cooling degree days 0 0  
Year to date cooling degree days 543 362  
Growing Degree Days 5 (Base 50)    
Moisture  
Dew Point 47 °F    
Average Humidity 67    
Maximum Humidity 86    
Minimum Humidity 47    
Precipitation  
Precipitation 0.28 in 0.12 in 2.28 in (1997)
Month to date precipitation 0.28 0.12  
Sea Level Pressure  
Sea Level Pressure 29.54 in    
Wind  
Wind Speed 13 mph (WSW)    
Max Wind Speed 33 mph    
Max Gust Speed 45 mph    
Visibility 9 miles    
Events Rain    
T = Trace of Precipitation, MM = Missing Value Source: NWS Daily Summary

Daily Weather History Graph

Daily Weather History Graph

Search for Another Location

Airport or City:

Trip Planner

Search our weather history database for the weather conditions in past years. The results will help you decide how hot, cold, wet, or windy it might be!

Date:

Astronomy

Nov. 01, 2013 Rise Set
Actual Time 7:46 AM EDT 6:10 PM EDT
Civil Twilight 7:18 AM EDT 6:39 PM EDT
Nautical Twilight 6:45 AM EDT 7:11 PM EDT
Astronomical Twilight 6:13 AM EDT 7:44 PM EDT
Moon 5:36 AM EDT (11/1) 5:03 PM EDT (11/1)
Length of Visible Light 11h 21m
Length of Day
10h 23m
Waning Crescent, 4% of the Moon is Illuminated
Nov 1
Waning Crescent
Nov 3
New
Nov 10
First Quarter
Nov 17
Full
Nov 25
Last Quarter

Hourly Weather History & Observations

Time (EDT) Temp. Dew Point Humidity Pressure Visibility Wind Dir Wind Speed Gust Speed Precip Events Conditions
12:56 AM 57.9 °F 55.0 °F 90% 29.46 in 6.0 mi SSE 11.5 mph 18.4 mph 0.03 in Rain Light Rain
1:56 AM 59.0 °F 55.0 °F 87% 29.41 in 5.0 mi SSE 13.8 mph 19.6 mph 0.06 in Rain Light Rain
2:56 AM 60.1 °F 55.0 °F 83% 29.37 in 10.0 mi SSE 10.4 mph 19.6 mph 0.00 in   Overcast
3:56 AM 60.1 °F 55.0 °F 83% 29.34 in 9.0 mi South 9.2 mph - 0.01 in   Overcast
4:38 AM 60.8 °F 55.4 °F 82% 29.42 in 1.8 mi West 17.3 mph 25.3 mph 0.14 in Rain Heavy Rain
4:41 AM 60.8 °F 55.4 °F 82% 29.42 in 2.0 mi West 16.1 mph 25.3 mph 0.14 in Rain Light Rain
4:45 AM 60.8 °F 55.4 °F 82% 29.42 in 3.0 mi West 13.8 mph 25.3 mph 0.14 in Rain Light Rain
4:53 AM 60.8 °F 55.4 °F 82% 29.41 in 10.0 mi WSW 18.4 mph 25.3 mph 0.14 in   Overcast
4:56 AM 60.1 °F 55.0 °F 83% 29.39 in 10.0 mi WSW 19.6 mph 28.8 mph 0.15 in   Overcast
5:56 AM 57.0 °F 52.0 °F 83% 29.43 in 9.0 mi SW 12.7 mph 21.9 mph 0.04 in Rain Light Rain
6:56 AM 55.9 °F 51.1 °F 84% 29.46 in 10.0 mi SW 13.8 mph 25.3 mph 0.01 in   Overcast
7:56 AM 55.9 °F 51.1 °F 84% 29.49 in 10.0 mi SW 16.1 mph 28.8 mph 0.01 in   Overcast
8:56 AM 55.9 °F 50.0 °F 80% 29.52 in 10.0 mi SW 21.9 mph 33.4 mph N/A   Overcast
9:26 AM 57.2 °F 48.2 °F 72% 29.54 in 10.0 mi SW 18.4 mph 26.5 mph N/A   Mostly Cloudy
9:56 AM 57.9 °F 48.0 °F 70% 29.54 in 10.0 mi WSW 25.3 mph 39.1 mph N/A   Scattered Clouds
10:23 AM 57.2 °F 46.4 °F 67% 29.56 in 10.0 mi West 13.8 mph 32.2 mph N/A   Mostly Cloudy
10:49 AM 55.4 °F 44.6 °F 67% 29.58 in 10.0 mi West 16.1 mph 24.2 mph N/A   Scattered Clouds
10:56 AM 57.0 °F 44.1 °F 62% 29.57 in 10.0 mi West 17.3 mph 32.2 mph N/A   Scattered Clouds
11:56 AM 57.9 °F 41.0 °F 53% 29.58 in 10.0 mi WSW 20.7 mph 36.8 mph N/A   Partly Cloudy
12:56 PM 59.0 °F 39.9 °F 49% 29.59 in 10.0 mi West 24.2 mph 41.4 mph N/A   Scattered Clouds
1:56 PM 57.9 °F 39.9 °F 51% 29.59 in 10.0 mi WSW 21.9 mph 34.5 mph N/A   Partly Cloudy
2:56 PM 55.9 °F 39.0 °F 53% 29.60 in 10.0 mi West 19.6 mph 28.8 mph N/A   Partly Cloudy
3:56 PM 57.0 °F 39.0 °F 51% 29.61 in 10.0 mi West 11.5 mph - N/A   Overcast
4:56 PM 55.9 °F 39.0 °F 53% 29.62 in 10.0 mi West 12.7 mph - N/A   Mostly Cloudy
5:56 PM 54.0 °F 39.0 °F 57% 29.64 in 10.0 mi West 6.9 mph - N/A   Mostly Cloudy
6:56 PM 53.1 °F 39.0 °F 59% 29.66 in 10.0 mi WSW 3.5 mph - N/A   Overcast
7:56 PM 52.0 °F 39.0 °F 61% 29.68 in 10.0 mi WSW 3.5 mph - N/A   Mostly Cloudy
8:56 PM 51.1 °F 39.0 °F 63% 29.70 in 10.0 mi Calm Calm - N/A   Mostly Cloudy
9:56 PM 50.0 °F 39.0 °F 66% 29.69 in 10.0 mi SW 3.5 mph - N/A   Overcast
10:56 PM 51.1 °F 39.0 °F 63% 29.68 in 10.0 mi Calm Calm - N/A   Overcast
11:56 PM 51.1 °F 39.9 °F 66% 29.66 in 10.0 mi SW 5.8 mph - N/A   Overcast